Location: Unspecified
(43.4354°N, 0.0000°E)
Time: 20:33:50
(UTC+00:00)

Tiros 1 despin weight - Pass Details

Date: 01 July 2019
Orbit: 594 x 642 km, 48.2° (Epoch: 21 July)

Event Time Altitude Azimuth Distance (km) Brightness Sun altitude
Rises 23:06:29 0° 288° (WNW) 2,864 ? -22.2°
Reaches altitude 10° 23:08:52 10° 294° (WNW) 1,952 ? -22.3°
Maximum altitude 23:13:13 50° 10° (N) 762 ? -22.5°
Enters shadow 23:17:00 13° 85° (E) 1,732 ? -22.6°
